Wind_Speed
14 14 14 14 14 13 12 12 11 10 10 10 9 8 8 7 7 7 7 7 7 7 7 8 8 7 7 7 7 7 7 7 8 8 9 9 9 9 10 10 11 11 12 12 12 13 13 13 13
16 15 15 15 14 13 13 13 12 11 10 10 9 8 8 8 8 8 8 8 8 8 7 7 8 8 8 9 9 9 9 9 9 10 10 10 10 10 11 12 12 13 13 13 13 13 13 14 13
17 17 17 16 15 14 14 14 13 12 12 11 11 10 10 10 9 9 9 9 10 9 8 8 9 9 10 10 10 10 10 10 10 11 11 11 11 11 12 13 14 14 14 14 14 14 13 14 13
19 18 18 17 16 15 15 14 14 14 13 13 13 12 11 10 10 10 10 10 10 10 10 10 11 11 11 11 12 12 11 11 11 11 12 12 12 12 13 14 15 15 15 15 15 15 15 15 15
20 20 19 17 17 16 16 16 15 15 14 14 15 14 12 12 12 11 11 10 11 11 11 11 12 12 12 12 12 13 13 13 13 13 13 13 13 14 14 15 16 16 16 16 16 16 16 16 16
20 20 19 17 17 17 17 17 17 16 16 15 15 15 15 14 13 12 12 12 11 11 11 12 12 13 12 12 13 13 13 14 14 13 13 14 14 15 15 16 16 16 17 17 17 17 17 17 16
19 19 18 17 17 17 17 17 18 17 17 17 16 16 16 15 14 14 14 14 13 12 12 12 13 13 14 14 14 14 14 14 14 14 14 14 14 14 15 16 17 18 18 18 18 18 18 17 17
18 18 18 17 17 18 18 18 19 19 19 18 18 17 16 16 14 14 14 14 13 13 13 13 14 15 15 15 15 15 15 15 15 15 15 15 15 16 17 18 18 18 18 18 18 19 19 19 19
18 18 17 17 17 18 19 19 20 20 20 19 18 17 16 15 14 13 14 14 14 14 14 14 15 15 16 15 16 16 16 16 16 16 16 17 17 17 18 18 19 19 19 19 19 19 19 19 20
17 17 17 17 19 18 18 20 20 20 20 19 18 17 16 15 14 14 14 14 15 15 15 15 16 16 16 17 17 18 17 17 17 18 18 18 19 19 19 20 20 21 21 21 21 20 20 20 21
16 17 16 17 18 18 19 19 20 20 19 18 18 18 17 16 15 15 15 15 15 15 16 16 16 16 16 16 16 17 17 18 18 19 19 20 21 20 20 20 21 22 22 22 22 22 21 21 21
16 16 16 17 18 18 18 18 19 19 19 19 19 18 17 17 17 17 16 15 15 15 15 15 16 16 16 16 15 16 17 18 18 19 19 20 20 21 22 22 22 22 22 23 23 23 23 23 23
15 15 16 17 18 19 18 18 19 19 20 20 20 19 17 17 18 17 17 16 15 15 15 16 16 17 17 18 17 16 17 18 19 19 19 20 20 22 23 23 23 23 22 23 24 24 24 24 25
13 14 15 16 17 18 19 19 19 19 20 20 20 20 18 18 18 17 17 17 16 16 16 16 18 18 18 19 18 17 19 19 18 19 20 21 22 23 22 23 23 23 23 23 24 24 25 25 25
11 12 14 15 16 17 17 17 18 19 20 20 20 19 19 19 18 17 17 16 15 15 16 17 17 18 18 19 19 19 19 19 19 20 20 21 22 23 23 23 23 23 23 24 24 25 25 26 26
10 11 12 13 14 15 16 17 18 19 19 19 19 19 18 17 17 17 17 15 15 16 16 17 16 17 17 19 20 20 20 20 20 20 20 20 21 22 22 22 22 22 22 24 24 25 26 26 26
9 10 10 11 13 13 15 16 17 19 20 19 18 18 17 16 16 16 16 16 16 16 17 17 17 17 18 19 19 20 20 20 20 20 20 20 21 22 22 22 23 24 24 24 25 25 25 26 26
9 9 9 10 12 13 15 15 16 17 19 18 17 17 17 16 16 16 17 17 17 16 16 17 18 19 19 19 19 20 20 20 20 21 21 21 22 23 23 23 24 24 23 24 24 24 25 25 25
8 9 9 9 11 13 15 15 15 16 17 17 18 17 17 17 17 16 17 17 16 16 16 17 17 17 18 18 18 19 19 19 21 22 22 22 22 23 23 23 24 24 24 24 24 24 25 25 25
8 8 8 9 10 13 14 14 15 16 17 17 18 18 18 18 17 17 17 16 17 16 17 17 17 16 17 17 18 19 19 19 20 21 22 22 22 23 23 23 23 23 24 24 24 25 25 24 24
7 8 8 9 10 12 13 14 15 16 16 17 17 18 18 18 18 18 17 17 17 16 16 16 15 15 15 16 16 17 17 18 19 20 21 22 22 22 23 23 24 23 23 23 24 24 24 24 24
7 8 8 9 10 10 11 13 13 14 14 15 15 15 16 16 17 17 16 15 15 16 15 16 15 15 15 15 16 18 17 18 19 20 20 21 21 21 22 23 23 23 23 23 23 24 25 25 24
6 6 7 8 10 10 11 13 12 13 13 14 14 13 13 14 14 14 14 14 14 14 14 14 14 14 15 15 16 16 16 17 18 19 19 20 20 20 21 22 22 22 22 22 22 22 23 23 24
5 6 6 7 9 9 10 11 12 12 12 12 12 12 12 12 13 12 12 12 13 12 12 13 13 13 14 15 15 16 16 17 17 18 19 20 20 21 20 20 21 22 22 22 22 22 22 22 23
5 5 6 6 6 8 9 10 11 10 10 10 11 10 9 10 12 12 11 12 12 12 12 12 12 12 13 14 14 15 16 16 17 17 18 18 19 20 20 20 21 21 22 22 22 22 23 23 24
5 5 6 7 7 7 8 9 10 10 9 9 9 8 8 9 9 9 10 11 10 9 10 11 11 12 12 13 14 15 16 16 16 16 16 17 18 19 19 19 20 20 20 20 22 22 24 24 25
5 6 6 7 8 8 8 8 8 9 8 9 9 7 8 8 9 9 9 9 9 8 9 11 11 12 13 13 14 14 15 15 15 15 16 16 16 17 17 18 19 19 19 20 21 23 23 24 24
6 6 7 7 8 8 8 8 9 9 9 9 9 9 9 9 9 8 8 8 8 8 9 10 11 11 12 13 13 14 14 15 16 15 15 15 16 17 17 18 19 20 19 19 20 21 22 23 24
7 7 8 8 9 10 10 9 10 11 11 9 9 9 9 8 8 8 8 7 8 8 9 9 10 10 11 11 12 13 13 14 14 15 16 16 16 17 17 17 18 19 19 20 20 21 22 23 24
8 8 9 10 10 11 11 11 11 11 11 9 9 9 9 8 8 8 8 8 9 9 8 9 10 10 10 11 11 12 13 13 14 15 16 16 16 17 17 17 18 19 19 20 21 22 23 24 24
Wind_Direction
236 237 233 230 231 235 236 237 238 241 243 249 256 262 265 277 283 284 286 288 298 300 297 295 291 290 286 288 292 292 296 300 300 302 303 301 298 298 299 300 302 303 304 305 305 303 301 299 300
237 237 234 233 234 235 235 235 236 240 241 249 256 259 264 269 278 283 284 285 289 296 294 290 294 290 287 288 289 288 291 297 299 299 299 297 295 296 296 297 299 300 301 300 301 301 299 299 299
235 237 236 235 235 236 233 232 235 241 243 249 254 256 265 270 275 280 279 281 281 283 281 287 291 292 290 289 285 283 287 291 295 298 298 296 294 295 296 296 298 298 298 297 297 297 297 296 296
235 234 236 235 235 234 234 235 239 243 245 249 253 259 265 268 273 276 275 272 275 276 275 284 289 291 291 287 286 282 282 285 288 294 295 293 292 293 294 295 296 296 297 296 295 296 295 293 292
237 236 235 236 233 232 235 238 242 244 247 253 253 258 264 268 270 274 276 277 274 274 277 283 288 290 288 284 285 281 279 281 283 287 291 293 294 293 292 294 294 294 294 293 292 292 292 291 291
236 236 235 234 232 234 236 240 243 246 249 253 258 261 266 268 270 273 278 278 279 279 278 284 288 287 286 287 284 280 281 281 281 283 286 290 292 291 289 290 290 290 291 291 291 290 290 289 288
236 235 235 235 233 234 239 241 242 245 249 252 258 263 267 270 270 274 278 279 281 280 280 283 284 283 282 282 282 280 280 280 277 278 282 285 288 290 291 290 288 288 288 288 288 289 288 288 287
236 236 235 233 233 235 239 242 243 243 247 252 257 261 266 270 273 277 280 282 282 281 281 284 287 284 281 280 281 281 279 278 277 277 278 281 284 285 286 287 287 287 288 287 287 287 286 286 287
236 234 231 230 231 234 239 243 243 244 249 254 259 264 268 272 276 279 280 278 278 279 281 283 286 281 279 279 279 279 277 279 280 278 277 278 282 282 282 284 285 285 285 283 283 284 284 285 286
236 233 231 231 233 234 239 243 244 245 250 255 261 265 268 272 274 277 279 278 277 277 281 282 284 277 278 279 277 275 277 276 278 278 277 278 280 281 282 283 283 282 281 281 280 281 281 283 285
237 235 233 233 233 233 238 242 245 246 249 257 263 265 269 272 272 275 277 278 277 276 277 281 283 279 277 273 269 270 274 273 276 277 277 279 281 282 282 284 283 281 279 279 280 279 279 281 282
240 238 236 233 232 235 239 241 245 248 253 258 262 264 268 272 275 277 279 279 280 279 277 278 281 280 278 274 269 273 276 275 278 276 279 280 279 281 284 284 283 282 280 279 280 280 279 280 281
240 241 239 236 236 239 238 240 245 250 254 257 261 265 268 273 277 276 276 276 279 279 279 278 279 281 281 276 271 272 276 277 279 279 280 283 282 282 284 284 284 282 283 283 282 282 280 281 281
243 241 236 234 236 240 242 242 246 251 255 259 264 269 273 276 276 275 275 275 274 275 277 276 279 281 279 275 275 276 278 279 279 281 282 282 282 283 285 286 282 281 282 282 282 281 279 281 281
242 238 233 231 235 237 243 245 248 254 258 262 265 267 272 276 276 276 274 273 273 275 275 275 277 280 279 277 277 276 277 278 278 279 282 284 285 286 289 287 285 281 281 282 283 282 281 280 280
236 232 233 232 235 241 246 249 252 255 259 260 263 265 268 272 275 276 274 274 274 276 276 275 276 278 278 277 277 276 276 276 278 279 281 284 284 285 287 288 288 285 282 282 283 282 281 281 281
241 237 237 235 238 244 248 252 256 257 258 259 262 264 265 269 272 273 273 274 275 277 277 277 277 277 277 276 276 276 276 277 280 280 279 282 285 285 284 284 286 286 285 286 286 284 282 281 281
248 247 244 245 248 252 257 260 263 263 261 263 265 265 267 267 267 269 272 274 274 274 273 274 278 277 279 278 278 277 278 277 278 279 280 282 283 283 283 284 285 285 285 286 286 286 284 282 282
257 253 249 252 250 255 260 263 267 269 266 266 267 268 269 269 266 268 270 272 273 274 275 276 279 279 279 277 279 279 280 279 279 281 282 282 281 281 283 285 284 285 284 285 286 288 287 283 282
261 260 257 257 258 260 262 263 267 270 273 270 272 274 272 270 269 270 270 271 275 277 274 276 280 282 281 278 278 281 280 280 281 282 281 281 284 283 284 285 283 285 286 288 290 291 289 285 283
262 267 268 268 263 263 267 267 270 270 273 275 275 274 271 266 265 264 268 274 276 278 277 279 280 281 282 280 281 283 284 282 282 282 281 281 283 283 283 283 283 285 287 288 289 290 288 287 285
267 273 274 268 266 271 272 275 277 278 280 280 277 274 271 265 265 265 268 275 277 279 280 283 283 282 284 285 287 289 289 288 286 284 282 281 283 284 283 283 283 284 285 288 289 290 289 289 288
279 279 276 271 274 275 273 280 286 289 288 285 281 277 276 275 274 268 268 276 280 280 281 285 287 285 285 288 290 294 293 290 287 287 287 286 285 284 284 284 284 285 286 288 289 289 290 290 292
289 284 276 279 279 278 283 289 294 294 298 296 289 282 281 282 276 274 274 275 279 282 285 286 289 289 287 291 292 295 298 295 292 290 288 287 286 285 285 286 286 286 286 287 290 290 292 295 294
296 292 287 291 295 295 291 293 300 300 302 303 298 291 290 289 278 277 278 279 281 282 283 286 286 291 292 295 295 300 301 299 296 293 291 289 289 288 285 288 291 290 288 288 289 289 291 295 296
297 292 296 299 300 298 291 295 302 304 307 307 306 299 295 297 292 285 282 285 281 283 285 289 292 295 299 299 301 302 300 300 299 296 295 294 294 294 294 292 293 292 291 293 292 292 295 297 298
297 287 289 298 302 299 297 304 309 313 313 314 315 307 302 300 298 295 288 288 288 290 290 292 297 300 300 300 302 304 302 303 304 304 304 301 299 298 298 295 295 295 296 299 299 298 299 299 300
304 296 292 298 303 303 305 311 320 318 317 317 320 317 315 309 308 304 301 298 294 296 297 300 303 305 304 301 303 305 307 309 310 307 309 306 301 301 299 297 297 300 303 304 305 304 303 302 301
305 301 300 302 301 303 306 310 314 314 315 317 322 318 321 313 306 307 311 309 305 303 306 306 308 309 306 307 309 311 313 314 313 310 309 309 306 306 302 304 304 304 306 306 306 307 306 306 305
301 302 302 302 304 303 302 305 309 311 310 311 315 314 313 314 315 313 314 312 308 305 307 308 312 313 312 312 314 315 316 317 318 316 317 315 314 312 310 309 311 310 310 310 308 309 309 309 308
Height
5862 5863 5865 5867 5868 5869 5870 5871 5871 5872 5872 5872 5873 5873 5874 5876 5877 5879 5878 5876 5877 5877 5877 5876 5876 5877 5877 5877 5877 5877 5877 5877 5877 5877 5877 5878 5877 5877 5877 5877 5877 5877 5876 5876 5876 5876 5875 5875 5874
5859 5861 5863 5865 5866 5867 5868 5869 5869 5869 5870 5871 5871 5872 5873 5873 5874 5875 5875 5875 5875 5876 5875 5875 5875 5875 5876 5876 5875 5875 5876 5876 5876 5876 5876 5876 5875 5875 5875 5875 5875 5875 5874 5874 5874 5873 5873 5872 5872
5857 5858 5861 5862 5863 5865 5866 5866 5866 5867 5868 5869 5870 5870 5871 5872 5872 5873 5873 5873 5874 5874 5874 5874 5874 5874 5874 5874 5874 5874 5874 5874 5874 5874 5874 5874 5873 5873 5873 5873 5873 5872 5872 5872 5871 5871 5870 5870 5870
5854 5856 5858 5860 5861 5863 5863 5863 5864 5865 5866 5867 5868 5869 5870 5870 5870 5871 5871 5871 5872 5872 5872 5873 5873 5872 5872 5872 5872 5872 5872 5872 5872 5872 5872 5872 5871 5871 5871 5871 5870 5870 5870 5869 5869 5868 5868 5867 5867
5851 5853 5855 5857 5858 5860 5860 5861 5861 5862 5863 5864 5865 5866 5867 5867 5868 5868 5869 5869 5869 5870 5870 5870 5870 5870 5870 5870 5870 5870 5870 5870 5870 5870 5870 5869 5869 5869 5869 5868 5868 5867 5867 5866 5866 5865 5865 5864 5864
5848 5849 5852 5854 5856 5857 5857 5858 5859 5860 5861 5862 5863 5864 5864 5865 5865 5866 5867 5867 5867 5867 5868 5868 5868 5868 5868 5868 5868 5867 5867 5867 5867 5867 5867 5867 5866 5866 5866 5865 5865 5864 5864 5863 5862 5862 5862 5861 5861
5845 5846 5849 5851 5853 5854 5855 5855 5857 5857 5858 5860 5860 5861 5862 5862 5863 5863 5864 5864 5864 5864 5865 5865 5866 5866 5865 5865 5865 5865 5864 5864 5864 5864 5864 5864 5864 5863 5863 5862 5862 5861 5860 5860 5859 5859 5858 5858 5857
5841 5844 5845 5848 5849 5851 5851 5852 5853 5854 5855 5857 5857 5858 5859 5859 5860 5860 5860 5861 5861 5861 5862 5862 5862 5863 5863 5863 5862 5862 5862 5861 5861 5861 5861 5861 5861 5860 5859 5859 5858 5858 5857 5856 5856 5855 5855 5854 5854
5838 5842 5843 5845 5846 5847 5848 5849 5850 5852 5853 5854 5854 5855 5856 5856 5857 5857 5857 5858 5858 5859 5859 5860 5859 5860 5860 5860 5859 5859 5859 5858 5858 5858 5858 5857 5857 5857 5856 5855 5854 5854 5853 5852 5852 5851 5851 5850 5850
5835 5838 5840 5842 5843 5844 5845 5846 5847 5849 5850 5850 5851 5852 5852 5853 5854 5854 5855 5855 5855 5856 5856 5856 5856 5856 5856 5856 5855 5856 5856 5855 5855 5855 5854 5854 5853 5853 5852 5851 5850 5850 5849 5848 5848 5847 5846 5846 5846
5833 5836 5837 5839 5839 5841 5842 5843 5844 5846 5847 5848 5848 5849 5849 5850 5850 5851 5851 5852 5852 5852 5852 5853 5853 5853 5852 5852 5851 5852 5852 5851 5851 5851 5850 5850 5849 5849 5848 5847 5846 5845 5845 5844 5843 5842 5842 5841 5841
5831 5833 5834 5836 5837 5838 5840 5840 5841 5842 5844 5845 5845 5845 5846 5847 5847 5848 5848 5848 5848 5849 5849 5849 5849 5848 5848 5847 5847 5847 5847 5847 5847 5847 5846 5845 5844 5844 5843 5842 5841 5841 5840 5839 5838 5837 5837 5836 5836
5828 5830 5831 5833 5834 5836 5837 5838 5838 5839 5841 5841 5842 5842 5842 5843 5844 5844 5844 5844 5844 5845 5845 5845 5845 5844 5844 5844 5843 5843 5843 5843 5842 5842 5841 5841 5840 5839 5838 5837 5836 5836 5835 5834 5833 5833 5832 5831 5831
5825 5827 5828 5830 5831 5833 5834 5835 5835 5836 5837 5838 5838 5838 5838 5839 5839 5840 5840 5840 5840 5840 5840 5840 5840 5840 5840 5839 5839 5839 5839 5838 5838 5837 5837 5836 5835 5834 5833 5832 5831 5830 5829 5829 5828 5827 5827 5826 5825
5823 5825 5826 5828 5829 5829 5831 5832 5832 5833 5833 5834 5834 5834 5835 5835 5835 5835 5836 5836 5836 5836 5836 5836 5836 5836 5836 5835 5835 5835 5834 5833 5833 5832 5832 5831 5830 5829 5828 5827 5826 5825 5824 5823 5822 5821 5821 5820 5819
5821 5823 5824 5826 5826 5826 5829 5829 5829 5829 5829 5830 5830 5830 5831 5831 5831 5831 5831 5832 5832 5832 5832 5831 5832 5832 5832 5831 5831 5830 5829 5828 5828 5828 5827 5826 5825 5824 5823 5822 5821 5819 5818 5817 5816 5816 5815 5814 5813
5819 5821 5822 5824 5824 5824 5825 5825 5826 5825 5825 5826 5827 5827 5827 5827 5828 5828 5828 5828 5828 5828 5828 5828 5827 5827 5827 5826 5826 5825 5824 5824 5823 5823 5822 5821 5820 5819 5818 5817 5816 5815 5813 5812 5811 5810 5809 5808 5807
5818 5819 5820 5821 5821 5821 5821 5822 5822 5822 5822 5822 5823 5823 5824 5824 5824 5824 5824 5824 5824 5823 5823 5823 5823 5823 5822 5821 5821 5820 5819 5819 5818 5818 5817 5816 5815 5814 5813 5812 5810 5809 5808 5807 5806 5804 5803 5802 5801
5816 5817 5818 5818 5818 5818 5818 5819 5819 5819 5819 5820 5820 5819 5820 5820 5820 5820 5820 5820 5820 5819 5818 5819 5819 5818 5817 5817 5816 5815 5814 5814 5813 5813 5811 5810 5809 5808 5807 5806 5805 5804 5803 5802 5800 5799 5798 5796 5794
5815 5815 5816 5816 5816 5816 5816 5816 5817 5816 5816 5816 5816 5816 5816 5816 5816 5816 5816 5816 5816 5815 5814 5815 5814 5813 5813 5812 5811 5811 5810 5809 5808 5807 5806 5805 5803 5802 5801 5801 5800 5799 5798 5796 5795 5793 5791 5790 5788
5814 5814 5815 5815 5815 5814 5814 5815 5814 5814 5813 5813 5813 5812 5811 5812 5812 5812 5812 5812 5812 5811 5811 5810 5810 5809 5808 5807 5807 5806 5805 5804 5802 5802 5800 5799 5798 5797 5796 5795 5794 5793 5792 5791 5789 5787 5786 5785 5783
5813 5813 5813 5813 5813 5813 5813 5812 5812 5811 5811 5810 5809 5808 5808 5808 5808 5808 5808 5808 5808 5807 5806 5806 5805 5805 5804 5803 5802 5801 5800 5799 5798 5797 5795 5794 5793 5792 5791 5790 5789 5788 5786 5785 5784 5782 5780 5779 5777
5812 5812 5812 5812 5811 5811 5810 5810 5811 5809 5808 5807 5806 5804 5804 5804 5804 5804 5805 5804 5804 5803 5803 5802 5801 5801 5800 5799 5798 5797 5795 5794 5793 5792 5790 5789 5788 5787 5785 5784 5783 5782 5780 5780 5778 5776 5775 5773 5772
5811 5811 5811 5810 5810 5810 5809 5809 5809 5807 5806 5804 5803 5802 5801 5801 5801 5801 5801 5801 5800 5800 5799 5799 5798 5797 5796 5795 5794 5793 5792 5790 5788 5787 5785 5784 5783 5781 5780 5779 5778 5776 5775 5774 5773 5771 5769 5768 5766
5811 5811 5810 5809 5809 5808 5808 5807 5807 5805 5804 5802 5800 5799 5799 5799 5798 5798 5798 5797 5797 5796 5796 5795 5795 5794 5792 5791 5790 5789 5788 5786 5784 5782 5780 5779 5778 5776 5775 5774 5772 5770 5769 5768 5766 5765 5763 5761 5759
5810 5810 5810 5809 5808 5808 5807 5805 5805 5803 5802 5800 5799 5798 5797 5797 5796 5795 5795 5794 5793 5793 5793 5792 5791 5790 5789 5787 5786 5786 5784 5782 5780 5778 5776 5774 5773 5771 5769 5768 5766 5765 5763 5761 5760 5758 5757 5754 5752
5810 5809 5809 5809 5807 5806 5805 5804 5803 5802 5801 5799 5798 5797 5796 5795 5794 5793 5792 5791 5791 5790 5790 5789 5788 5787 5785 5784 5783 5782 5780 5778 5775 5774 5772 5770 5768 5766 5764 5762 5761 5759 5757 5756 5754 5751 5750 5747 5745
5809 5809 5808 5807 5806 5805 5804 5803 5802 5801 5800 5798 5797 5796 5795 5794 5792 5791 5790 5789 5789 5788 5787 5786 5785 5783 5782 5781 5780 5778 5776 5774 5772 5770 5768 5765 5763 5761 5759 5758 5756 5754 5752 5750 5748 5746 5743 5741 5738
5809 5808 5807 5806 5805 5804 5802 5804 5801 5800 5798 5797 5796 5794 5793 5792 5791 5790 5788 5787 5786 5786 5785 5784 5782 5781 5779 5778 5777 5775 5773 5771 5769 5766 5764 5762 5759 5757 5755 5753 5751 5749 5747 5745 5742 5740 5738 5735 5732
5807 5807 5806 5805 5804 5802 5801 5804 5799 5798 5796 5795 5794 5793 5792 5790 5789 5788 5787 5786 5785 5784 5783 5781 5780 5778 5777 5776 5774 5772 5770 5768 5765 5763 5760 5758 5755 5753 5751 5749 5747 5744 5742 5739 5737 5734 5732 5729 5726